FW8346 Weather Reports


Display with metric or nautical units.
time (UTC)temp
F
wind
direction
speed
MPH
gust
MPH
rain 1hr
in
rain 24hr
in
rain mn
in
humidity
%
barometer
mb
20260831030533 70 63 4.0 6.0 0.00 0.00 0.00 94 1009.6
20260831030305 70 84 4.0 7.0 0.00 0.00 0.00 94 1009.6
20260831025535 70 78 5.0 7.0 0.00 0.00 0.00 94 1009.6
20260831025040 70 80 4.0 7.0 0.00 0.00 0.00 93 1009.5
20260831025034 70 87 5.0 7.0 0.00 0.00 0.00 94 1009.5
20260831024305 70 86 5.0 7.0 0.00 0.00 0.00 93 1009.5
20260831023536 70 109 5.0 9.0 0.00 0.00 0.00 93 1009.6
20260831023036 70 75 6.0 10.0 0.00 0.00 0.00 93 1009.8
20260831022800 70 65 7.0 10.0 0.00 0.00 0.00 93 1009.9
20260831022024 70 35 7.0 10.0 0.00 0.00 0.00 93 1009.8
20260831021518 70 46 6.0 8.0 0.00 0.00 0.00 93 1010.0
20260831021012 70 18 4.0 8.0 0.00 0.00 0.00 93 1010.1
20260831020740 70 20 4.0 7.0 0.00 0.00 0.00 92 1009.9
20260831020009 70 58 4.0 7.0 0.00 0.00 0.00 92 1009.8
20260831015509 70 56 5.0 6.0 0.00 0.00 0.00 92 1009.6
20260831015007 70 73 5.0 6.0 0.00 0.00 0.00 92 1009.5
20260831014507 70 61 5.0 8.0 0.00 0.00 0.00 91 1009.6
20260831014008 70 86 6.0 8.0 0.00 0.00 0.00 92 1009.5
20260831013507 70 62 6.0 8.0 0.00 0.00 0.00 92 1009.3
20260831013013 70 65 5.0 7.0 0.00 0.00 0.00 92 1009.5
20260831013008 70 70 5.0 8.0 0.00 0.00 0.00 91 1009.4
20260831012008 70 60 5.0 8.0 0.00 0.00 0.00 91 1009.5
20260831011509 70 70 5.0 8.0 0.00 0.00 0.00 91 1009.6
20260831011004 70 89 5.0 8.0 0.00 0.00 0.00 91 1009.5
20260831010504 70 86 5.0 8.0 0.00 0.00 0.00 91 1009.4
20260831010235 70 66 5.0 8.0 0.00 0.00 0.00 91 1009.5
20260831005503 71 75 5.0 8.0 0.00 0.00 0.00 91 1009.5
20260831005235 71 72 6.0 9.0 0.00 0.00 0.00 91 1009.4
20260831004505 71 66 6.0 9.0 0.00 0.00 0.00 90 1009.4
20260831004004 71 65 5.0 9.0 0.00 0.00 0.00 91 1009.3
20260831003505 71 101 5.0 8.0 0.00 0.00 0.00 91 1009.3
20260831003004 71 65 5.0 8.0 0.00 0.00 0.00 91 1009.4
20260831002501 71 66 5.0 8.0 0.00 0.00 0.00 91 1009.5
20260831001959 71 69 6.0 9.0 0.00 0.00 0.00 91 1009.4
20260831001500 71 91 6.0 9.0 0.00 0.00 0.00 90 1009.4
20260831001001 71 62 6.0 10.0 0.00 0.00 0.00 90 1009.4
20260831000501 71 71 7.0 10.0 0.00 0.00 0.00 90 1009.5
20260831000000 71 70 7.0 10.0 0.00 0.00 0.00 90 1009.3
20260830235501 71 72 7.0 10.0 0.00 0.00 0.00 90 1009.3
20260830235230 72 52 7.0 10.0 0.00 0.00 0.00 89 1009.5
20260830234501 72 57 6.0 9.0 0.00 0.00 0.00 89 1009.6
20260830233957 72 43 5.0 9.0 0.00 0.00 0.00 89 1009.6
20260830233457 72 58 6.0 12.0 0.00 0.00 0.00 90 1009.6
20260830232955 72 63 7.0 12.0 0.00 0.00 0.00 90 1009.6
20260830232724 73 56 6.0 10.0 0.00 0.00 0.00 89 1009.6
20260830231955 73 60 5.0 9.0 0.00 0.00 0.00 89 1009.8
20260830231724 73 54 6.0 11.0 0.00 0.00 0.00 89 1009.8
20260830230953 73 57 6.0 11.0 0.00 0.00 0.00 88 1009.8
20260830230451 73 60 6.0 10.0 0.00 0.00 0.00 89 1009.8
20260830225950 73 68 5.0 9.0 0.00 0.00 0.00 88 1009.8
20260830225449 74 55 6.0 9.0 0.00 0.00 0.00 89 1009.6
20260830224951 74 70 6.0 9.0 0.00 0.00 0.00 88 1009.6
20260830224450 74 73 6.0 9.0 0.00 0.00 0.00 87 1009.6
20260830223950 75 73 5.0 9.0 0.00 0.00 0.00 87 1009.8
20260830223450 75 59 5.0 8.0 0.00 0.00 0.00 87 1009.8
20260830222943 76 75 6.0 12.0 0.00 0.00 0.00 86 1009.6
20260830222436 77 92 5.0 12.0 0.00 0.00 0.00 84 1009.8
20260830221929 78 87 7.0 11.0 0.00 0.00 0.00 83 1009.6
20260830221429 78 93 8.0 12.0 0.00 0.00 0.00 83 1009.3
20260830220930 77 71 7.0 12.0 0.00 0.00 0.00 82 1009.2
20260830220430 77 73 6.0 11.0 0.00 0.00 0.00 83 1009.2
20260830215930 77 82 6.0 9.0 0.00 0.00 0.00 83 1009.4
20260830215429 78 77 6.0 8.0 0.00 0.00 0.00 82 1009.4
20260830214929 77 82 5.0 9.0 0.00 0.00 0.00 83 1009.5
20260830214431 77 131 5.0 9.0 0.00 0.00 0.00 82 1009.5
20260830213929 78 78 7.0 13.0 0.00 0.00 0.00 82 1009.5
20260830213429 78 81 6.0 13.0 0.00 0.00 0.00 81 1009.6
20260830213200 78 111 6.0 11.0 0.00 0.00 0.00 81 1009.5
20260830212701 78 73 7.0 11.0 0.00 0.00 0.00 79 1009.4
20260830211928 78 116 7.0 12.0 0.00 0.00 0.00 79 1009.5
20260830211427 78 84 7.0 12.0 0.00 0.00 0.00 79 1009.6
20260830210926 78 91 6.0 11.0 0.00 0.00 0.00 79 1009.8
20260830210425 78 117 6.0 8.0 0.00 0.00 0.00 81 1009.6
20260830210157 78 75 5.0 8.0 0.00 0.00 0.00 80 1009.8
20260830205419 78 75 6.0 9.0 0.00 0.00 0.00 80 1009.8
20260830204914 78 94 6.0 9.0 0.00 0.00 0.00 80 1009.8
20260830204741 78 96 4.0 9.0 0.00 0.00 0.00 80 1009.9
20260830204646 78 109 4.0 9.0 0.00 0.00 0.00 81 1010.0
20260830203356 78 77 4.0 9.0 0.00 0.00 0.00 81 1010.0
20260830202850 78 89 3.0 7.0 0.00 0.00 0.00 80 1010.0
20260830202345 78 76 4.0 7.0 0.00 0.00 0.00 79 1010.0
20260830201837 78 99 3.0 7.0 0.00 0.00 0.00 80 1010.1
20260830201607 78 104 3.0 7.0 0.00 0.00 0.00 79 1010.1
20260830201330 78 94 4.0 7.0 0.00 0.00 0.00 79 1010.2
20260830200319 78 96 4.0 7.0 0.00 0.00 0.00 78 1010.3
20260830195814 78 76 3.0 7.0 0.00 0.00 0.00 79 1010.3
20260830195307 78 115 3.0 8.0 0.00 0.00 0.00 79 1010.4
20260830194802 78 138 3.0 10.0 0.00 0.00 0.00 79 1010.5
20260830194256 78 188 4.0 10.0 0.00 0.00 0.00 79 1010.7
20260830193750 78 173 5.0 10.0 0.00 0.00 0.00 79 1010.7
20260830193244 78 77 4.0 9.0 0.00 0.00 0.00 79 1010.7
20260830192738 78 157 4.0 9.0 0.00 0.00 0.00 79 1010.6
20260830192232 78 107 4.0 9.0 0.00 0.00 0.00 78 1010.7
20260830191726 78 101 5.0 10.0 0.00 0.00 0.00 79 1010.7
20260830191220 78 120 6.0 11.0 0.00 0.00 0.00 77 1010.7
20260830190714 78 122 5.0 14.0 0.00 0.00 0.00 78 1010.7
20260830190209 78 81 5.0 14.0 0.00 0.00 0.00 81 1010.6
20260830190204 77 79 5.0 11.0 0.00 0.00 0.00 78 1010.7
20260830185156 77 109 5.0 11.0 0.00 0.00 0.00 80 1010.6
20260830184650 77 87 6.0 12.0 0.00 0.00 0.00 80 1010.6
20260830184144 77 127 6.0 12.0 0.00 0.00 0.00 81 1010.7
20260830183908 77 112 6.0 11.0 0.00 0.00 0.00 80 1010.8
20260830183132 77 97 5.0 10.0 0.00 0.00 0.00 79 1010.7
20260830182626 76 95 6.0 12.0 0.00 0.00 0.00 81 1010.7
20260830182120 76 144 6.0 12.0 0.00 0.00 0.00 81 1010.8
20260830181614 76 111 6.0 12.0 0.00 0.00 0.00 81 1010.8
20260830181107 76 82 7.0 12.0 0.00 0.00 0.00 82 1010.7
20260830180602 76 98 8.0 15.0 0.00 0.00 0.00 81 1011.0
20260830180055 76 94 7.0 15.0 0.00 0.00 0.00 80 1010.9
20260830175820 76 110 7.0 12.0 0.00 0.00 0.00 80 1010.8
20260830175043 76 113 8.0 14.0 0.00 0.00 0.00 82 1010.7
20260830174537 76 101 9.0 14.0 0.00 0.00 0.00 82 1010.7
20260830174032 75 87 9.0 15.0 0.00 0.00 0.00 83 1010.6
20260830173527 76 80 8.0 15.0 0.00 0.00 0.00 82 1010.6
20260830173521 75 74 8.0 14.0 0.00 0.00 0.00 83 1010.6
20260830172513 75 83 9.0 15.0 0.00 0.00 0.00 83 1010.6
20260830172008 75 76 10.0 15.0 0.00 0.00 0.00 83 1010.6
20260830171502 75 63 9.0 15.0 0.00 0.00 0.00 83 1010.6
20260830170956 74 117 9.0 15.0 0.00 0.00 0.00 83 1010.6
20260830170450 74 88 9.0 13.0 0.00 0.00 0.00 84 1010.6
20260830165944 74 98 8.0 14.0 0.00 0.00 0.00 83 1011.0
20260830165438 74 77 8.0 16.0 0.00 0.00 0.00 83 1010.9
20260830164932 74 101 7.0 16.0 0.00 0.00 0.00 85 1010.8
20260830164432 74 77 8.0 13.0 0.00 0.00 0.00 86 1010.7
20260830163936 72 97 10.0 17.0 0.00 0.00 0.00 87 1010.7
20260830163932 73 55 9.0 15.0 0.00 0.00 0.00 86 1010.8
20260830162431 72 65 12.0 17.0 0.00 0.00 0.00 88 1010.7
20260830161929 71 78 11.0 17.0 0.00 0.00 0.00 88 1010.7
20260830161428 71 72 10.0 17.0 0.00 0.00 0.00 88 1010.8
20260830161159 71 89 9.0 15.0 0.00 0.00 0.00 89 1011.0
20260830160428 71 102 9.0 13.0 0.00 0.00 0.00 90 1011.2
20260830155929 70 90 10.0 16.0 0.00 0.00 0.00 91 1011.3
20260830155428 69 80 10.0 16.0 0.00 0.00 0.00 91 1011.4
20260830154925 69 99 10.0 15.0 0.00 0.00 0.00 92 1011.4
20260830154426 69 67 8.0 13.0 0.00 0.00 0.00 92 1011.5
20260830154158 68 89 7.0 12.0 0.00 0.01 0.00 94 1011.7
20260830153425 68 60 8.0 12.0 0.00 0.01 0.00 93 1011.8
20260830152926 68 60 8.0 12.0 0.00 0.01 0.00 94 1011.8
20260830152423 67 77 6.0 12.0 0.00 0.01 0.00 94 1011.8
20260830151925 67 59 6.0 9.0 0.00 0.01 0.00 94 1011.9
20260830151419 67 53 7.0 11.0 0.00 0.01 0.00 94 1011.9
20260830150913 67 55 7.0 11.0 0.00 0.01 0.00 95 1011.8
20260830150406 67 66 7.0 11.0 0.00 0.03 0.00 95 1011.8
20260830145901 67 353 8.0 13.0 0.00 0.03 0.00 95 1011.8
20260830145626 67 52 7.0 13.0 0.00 0.04 0.00 95 1011.4
20260830144847 67 54 7.0 11.0 0.00 0.05 0.00 96 1011.5
20260830144343 67 82 7.0 12.0 0.00 0.06 0.00 95 1011.7
20260830143842 67 37 8.0 14.0 0.00 0.06 0.00 95 1011.5
20260830143343 66 58 8.0 14.0 0.00 0.07 0.00 95 1011.4
20260830143113 66 60 8.0 12.0 0.00 0.07 0.00 96 1011.2
20260830142343 66 42 7.0 10.0 0.00 0.08 0.00 96 1011.4
20260830141844 66 63 6.0 10.0 0.00 0.08 0.00 96 1011.4
20260830141344 66 60 4.0 9.0 0.00 0.09 0.00 96 1011.8
20260830140843 66 36 5.0 8.0 0.00 0.09 0.00 96 1011.9
20260830140343 66 69 6.0 8.0 0.00 0.10 0.00 96 1011.4
20260830135843 66 51 5.0 8.0 0.00 0.10 0.00 96 1011.2
20260830135344 66 64 4.0 8.0 0.00 0.11 0.00 96 1011.3
20260830134839 66 57 4.0 7.0 0.00 0.11 0.00 96 1011.4
20260830134612 66 46 4.0 6.0 0.00 0.12 0.00 96 1011.4
20260830133838 66 57 4.0 7.0 0.00 0.13 0.00 96 1011.1
20260830133338 65 79 5.0 8.0 0.00 0.15 0.00 96 1011.0
20260830132838 65 66 5.0 9.0 0.00 0.17 0.00 96 1011.0
20260830132610 65 103 6.0 10.0 0.00 0.19 0.00 96 1010.9
20260830131839 65 105 7.0 11.0 0.00 0.22 0.00 96 1010.8
20260830131340 65 99 6.0 11.0 0.00 0.25 0.00 96 1010.8
20260830130840 65 99 6.0 11.0 0.00 0.27 0.00 96 1010.9
20260830130340 65 83 6.0 9.0 0.00 0.30 0.00 96 1011.0
20260830125840 65 79 7.0 12.0 0.00 0.32 0.00 96 1011.1
20260830125338 65 72 7.0 12.0 0.00 0.35 0.00 96 1011.1
20260830124839 65 67 7.0 12.0 0.00 0.37 0.00 96 1011.0
20260830124338 65 68 7.0 12.0 0.00 0.39 0.00 96 1011.1
20260830123839 65 68 7.0 11.0 0.00 0.40 0.00 96 1011.1
20260830123339 65 75 7.0 10.0 0.00 0.42 0.00 96 1011.1
20260830122838 65 72 7.0 11.0 0.00 0.43 0.00 97 1011.2
20260830122338 65 72 6.0 11.0 0.00 0.45 0.00 97 1011.3
20260830121839 65 67 6.0 11.0 0.00 0.47 0.00 96 1011.3
20260830121338 65 41 5.0 8.0 0.00 0.49 0.00 96 1011.5
20260830120839 65 49 5.0 8.0 0.00 0.50 0.00 97 1011.4
20260830120338 65 80 5.0 8.0 0.00 0.52 0.00 97 1011.3
20260830115836 65 91 5.0 8.0 0.00 0.52 0.00 97 1011.2
20260830115336 65 70 5.0 7.0 0.00 0.53 0.00 96 1011.2
20260830114836 65 60 5.0 8.0 0.00 0.54 0.00 97 1011.0
20260830114337 65 65 5.0 8.0 0.00 0.55 0.00 97 1011.0
20260830113837 65 75 4.0 7.0 0.00 0.56 0.00 97 1011.2
20260830113338 65 91 4.0 8.0 0.00 0.59 0.00 97 1011.2
20260830112831 65 91 4.0 8.0 0.00 0.61 0.00 97 1011.1
20260830112324 65 65 4.0 7.0 0.00 0.61 0.00 97 1011.2
20260830111817 65 51 3.0 6.0 0.00 0.62 0.00 97 1011.3
20260830111313 65 50 4.0 6.0 0.00 0.63 0.00 97 1011.2
20260830110806 65 72 4.0 6.0 0.00 0.65 0.00 97 1010.9
20260830110300 65 71 4.0 6.0 0.00 0.68 0.00 97 1010.8
20260830105754 65 7 4.0 7.0 0.00 0.70 0.00 97 1010.8
20260830105248 65 49 4.0 7.0 0.00 0.71 0.00 97 1010.6
20260830104742 65 60 5.0 9.0 0.00 0.72 0.00 97 1010.6
20260830104236 65 61 6.0 12.0 0.00 0.72 0.00 97 1010.4
20260830103730 65 68 6.0 12.0 0.00 0.72 0.00 97 1010.2
20260830103455 65 57 6.0 10.0 0.00 0.72 0.00 97 1010.3
20260830102723 65 72 5.0 8.0 0.00 0.72 0.00 97 1010.4
20260830102220 65 68 4.0 7.0 0.00 0.73 0.00 97 1010.5
20260830101719 65 77 4.0 7.0 0.00 0.75 0.00 97 1010.7
20260830101218 65 77 4.0 7.0 0.00 0.75 0.00 97 1010.6
20260830100719 65 72 4.0 7.0 0.00 0.75 0.00 97 1010.6
20260830100217 65 65 4.0 7.0 0.00 0.75 0.00 97 1010.6
20260830095717 65 65 4.0 7.0 0.00 0.75 0.00 97 1010.7
20260830095447 65 75 4.0 8.0 0.00 0.75 0.00 97 1010.6
20260830094716 65 54 5.0 8.0 0.00 0.75 0.00 97 1010.7
20260830094214 65 54 5.0 8.0 0.00 0.75 0.00 97 1010.6
20260830093714 65 63 5.0 8.0 0.00 0.75 0.00 97 1010.6
20260830093214 65 70 5.0 8.0 0.00 0.75 0.00 97 1010.6
20260830092943 65 57 4.0 7.0 0.00 0.75 0.00 97 1011.0
20260830092212 65 76 4.0 6.0 0.00 0.75 0.00 97 1011.0
20260830091714 65 58 4.0 6.0 0.00 0.75 0.00 97 1011.0
20260830091212 65 56 4.0 7.0 0.00 0.75 0.00 97 1011.0
20260830090708 65 61 4.0 7.0 0.00 0.75 0.00 97 1010.9
20260830090436 65 60 4.0 7.0 0.00 0.75 0.00 97 1010.8
20260830085937 65 69 3.0 6.0 0.00 0.75 0.00 97 1010.8
20260830085433 65 53 3.0 6.0 0.00 0.75 0.00 97 1010.8
20260830084654 65 56 3.0 5.0 0.00 0.75 0.00 97 1010.6
20260830084149 65 72 4.0 6.0 0.00 0.75 0.00 97 1010.6
20260830083643 65 71 4.0 6.0 0.00 0.75 0.00 97 1010.5
20260830083137 65 91 4.0 6.0 0.00 0.75 0.00 97 1010.6
20260830082904 65 65 3.0 6.0 0.00 0.75 0.00 97 1010.6
20260830082356 65 53 4.0 6.0 0.00 0.75 0.00 97 1010.7
20260830081619 65 65 4.0 7.0 0.00 0.75 0.00 97 1010.5
20260830081113 65 76 4.0 7.0 0.00 0.75 0.00 97 1010.4
20260830080611 65 77 3.0 5.0 0.00 0.75 0.00 97 1010.5
20260830075555 65 71 4.0 6.0 0.00 0.75 0.00 97 1010.5
20260830075319 65 89 3.0 6.0 0.00 0.75 0.00 97 1010.5
20260830074543 65 78 3.0 6.0 0.00 0.75 0.00 97 1010.7
20260830074036 65 53 3.0 5.0 0.00 0.75 0.00 97 1010.8
20260830073531 65 60 3.0 4.0 0.00 0.75 0.00 96 1010.9
20260830073024 65 70 2.0 5.0 0.00 0.75 0.00 96 1011.0
20260830072519 65 50 3.0 5.0 0.00 0.75 0.00 96 1011.1
20260830072013 65 54 3.0 4.0 0.00 0.75 0.00 96 1011.1
20260830071506 65 68 3.0 5.0 0.00 0.75 0.00 96 1011.1
20260830071001 65 64 3.0 5.0 0.00 0.75 0.00 96 1011.1
20260830070455 65 70 2.0 3.0 0.00 0.75 0.00 96 1011.1
20260830065949 65 68 2.0 4.0 0.00 0.75 0.00 96 1011.1
20260830065715 65 60 2.0 4.0 0.00 0.75 0.00 96 1011.1
20260830064937 65 76 3.0 4.0 0.00 0.75 0.00 96 1011.2
20260830064430 65 72 3.0 6.0 0.00 0.75 0.00 96 1011.0
20260830063925 65 70 3.0 6.0 0.00 0.75 0.00 96 1011.0
20260830063418 65 76 3.0 5.0 0.00 0.75 0.00 96 1011.1
20260830062912 66 70 3.0 5.0 0.00 0.75 0.00 96 1011.1
20260830062407 66 67 3.0 5.0 0.00 0.75 0.00 96 1011.2
20260830061901 66 67 3.0 5.0 0.00 0.75 0.00 96 1011.2
20260830061354 66 81 3.0 5.0 0.00 0.75 0.00 96 1011.3
20260830060848 66 74 3.0 6.0 0.00 0.75 0.00 96 1011.4
20260830060343 66 62 3.0 6.0 0.00 0.75 0.00 95 1011.5
20260830055837 66 54 3.0 7.0 0.00 0.75 0.00 95 1011.6
20260830055330 66 63 3.0 7.0 0.00 0.75 0.00 95 1011.6
20260830054824 66 65 3.0 5.0 0.00 0.75 0.00 95 1011.7
20260830054319 67 75 3.0 5.0 0.00 0.75 0.00 95 1011.8
20260830053812 67 72 4.0 6.0 0.00 0.75 0.00 95 1011.6
20260830053306 67 70 3.0 6.0 0.00 0.75 0.00 95 1011.6
20260830052801 67 66 3.0 5.0 0.00 0.75 0.00 95 1011.6
20260830052529 67 70 4.0 6.0 0.00 0.75 0.00 95 1011.6
20260830051749 67 56 4.0 6.0 0.00 0.75 0.00 95 1011.7
20260830051243 67 66 4.0 6.0 0.00 0.75 0.00 94 1011.8
20260830050737 67 72 4.0 6.0 0.00 0.75 0.00 94 1011.8
20260830050231 67 70 3.0 5.0 0.00 0.75 0.00 94 1011.8
20260830045725 67 69 3.0 5.0 0.00 0.75 0.75 94 1011.8
20260830045219 67 68 2.0 4.0 0.00 0.75 0.75 94 1011.9
20260830044713 67 52 2.0 4.0 0.00 0.75 0.75 94 1012.0
20260830044207 67 72 2.0 4.0 0.00 0.75 0.75 94 1012.0
20260830043701 67 56 2.0 4.0 0.00 0.75 0.75 94 1012.1
20260830043156 67 63 2.0 3.0 0.00 0.75 0.75 94 1012.2
20260830043151 67 50 2.0 4.0 0.00 0.75 0.75 94 1012.2
20260830042143 67 40 2.0 4.0 0.00 0.75 0.75 94 1012.3
20260830041131 67 57 1.0 3.0 0.00 0.75 0.75 94 1012.3
20260830040624 67 86 1.0 3.0 0.00 0.75 0.75 94 1012.1
20260830040119 67 80 1.0 4.0 0.00 0.75 0.75 94 1012.0
20260830035612 67 105 2.0 5.0 0.00 0.75 0.75 94 1012.0
20260830035106 68 81 2.0 5.0 0.00 0.75 0.75 94 1011.8
20260830034607 68 90 2.0 5.0 0.00 0.75 0.75 94 1011.9
20260830034339 67 87 2.0 5.0 0.00 0.75 0.75 93 1011.8
20260830033608 68 118 2.0 4.0 0.00 0.75 0.75 93 1011.8
20260830033103 68 155 2.0 4.0 0.00 0.75 0.75 93 1011.8
20260830032605 68 93 3.0 5.0 0.00 0.75 0.75 93 1011.9
20260830032104 68 124 3.0 5.0 0.00 0.75 0.75 93 1011.8
20260830031603 68 105 3.0 5.0 0.00 0.75 0.75 93 1011.9
20260830031105 68 79 3.0 6.0 0.00 0.75 0.75 93 1012.0